Location: Enborne
(51.3833°N, 1.3667°W)
Time: 13:51:41
(UTC+00:00)

NOSS 2-2 (C) - Pass Details

Date: 26 January 2021
Orbit: 463 x 1745 km, 63.3° (Epoch: 03 March)

Event Time Altitude Azimuth Distance (km) Brightness Sun altitude
Rises 18:51:13 0° 315° (NW) 2,912 7.6 -19.5°
Reaches altitude 10° 18:53:19 10° 322° (NW) 2,133 6.7 -19.8°
Maximum altitude 18:58:00 46° 36° (NE) 1,109 4.5 -20.5°
Enters shadow 18:59:23 39° 74° (ENE) 1,301 4.7 -20.7°
